Tracking 30692 objects as of 16-Jun-2025
HD Live streaming from Space Station
objects crossing your sky now

STARLINK-2500

Track STARLINK-2500 now!
10-day predictions
STARLINK-2500 is classified as:


NORAD ID: 48485
Int'l Code: 2021-040BK
Perigee: 553.3 km
Apogee: 555.3 km
Inclination: 53.1 °
Period: 95.6 minutes
Semi major axis: 6925 km
RCS: Unknown
Launch date: May 9, 2021
Source: United States (US)
Launch site: AIR FORCE EASTERN TEST RANGE (AFETR)
Your satellite tracking list
Your tracking list is empty




NASA's NSSDC Master Catalog

Two Line Element Set (TLE):
1 48485U 21040BK  25167.44423177  .00007200  00000-0  50158-3 0  9990
2 48485  53.0555 316.8428 0001414  85.0673 275.0478 15.06413500226216
Source of the keplerian elements: AFSPC